Location: Glencliff
(36.1226°N, 86.7183°W)
Time: 23:09:32
(UTC+00:00)

TSX-5 - Pass Details

Date: 25 August 2019
Orbit: 405 x 1332 km, 68.9° (Epoch: 17 September)

Event Time Altitude Azimuth Distance (km) Brightness Sun altitude
Rises 02:19:12 0° 331° (NNW) 2,539 8.3 -21.8°
Reaches altitude 10° 02:21:09 10° 328° (NNW) 1,741 7.3 -22.1°
Maximum altitude 02:24:55 62° 247° (WSW) 673 4.3 -22.8°
Enters shadow 02:25:48 49° 197° (SSW) 791 4.4 -22.9°
